This demonstration page uses our WeatherBlox Daily Observations layout. Learn more.

Left ArrowRight Arrow

47.50024, -111.30081

Hourly Observations for May 11, 2022

Temp ( °F °C ) Dew Point ( °F °C ) Humidity (%) Winds ( mph kmh ) Pressure ( in mb ) Visibility ( mi km ) Precip ( " mm )
12:53 am 00:53 Clear 30 -1.1 17 -8.3 58 58 WSW 8 13 30.15 1021 10 16 0.00 0.00
1:53 am 01:53 Clear 34 1.1 17 -8.3 50 50 W 6 9 30.14 1021 10 16 0.00 0.00
2:53 am 02:53 Clear 27 -2.8 17 -8.3 66 66 WSW 8 13 30.14 1021 10 16 0.00 0.00
3:53 am 03:53 Clear 27 -2.8 18 -7.8 69 69 SW 9 15 30.16 1021 10 16 0.00 0.00
4:53 am 04:53 Clear 28 -2.2 18 -7.8 66 66 SW 6 9 30.18 1022 10 16 0.00 0.00
5:53 am 05:53 Clear 30 -1.1 18 -7.8 61 61 Calm 30.18 1022 10 16 0.00 0.00
6:53 am 06:53 Sunny 30 -1.1 22 -5.6 72 72 SSW 3 6 30.19 1022 10 16 0.00 0.00
7:53 am 07:53 Sunny 40 4.4 23 -5 51 51 SW 7 11 30.16 1021 10 16 0.00 0.00
8:53 am 08:53 Sunny 43 6.1 22 -5.6 43 43 Calm 30.19 1023 10 16 0.00 0.00
9:53 am 09:53 Sunny 49 9.4 21 -6.1 33 33 Calm 30.16 1021 10 16 0.00 0.00
10:53 am 10:53 Sunny 51 10.6 20 -6.7 29 29 SSE 3 6 30.14 1021 10 16 0.00 0.00
11:53 am 11:53 Sunny 55 12.8 20 -6.7 25 25 Calm 30.12 1020 10 16 0.00 0.00
12:53 pm 12:53 Sunny 57 13.9 18 -7.8 22 22 VRB 5 7 30.11 1020 10 16 0.00 0.00
1:53 pm 13:53 Sunny 57 13.9 18 -7.8 22 22 S 7 11 30.08 1019 10 16 0.00 0.00
2:53 pm 14:53 Sunny 58 14.4 19 -7.2 22 22 WNW 6 9 30.09 1019 10 16 0.00 0.00
3:53 pm 15:53 Sunny 62 16.7 22 -5.6 21 21 ENE 9 15 30.06 1018 10 16 0.00 0.00
4:53 pm 16:53 Mostly Cloudy 62 16.7 23 -5 22 22 NE 13 20 30.04 1017 10 16 0.00 0.00
5:53 pm 17:53 Mostly Cloudy 59 15 25 -3.9 27 27 ESE 8 13 30.04 1017 10 16 0.00 0.00
6:53 pm 18:53 Cloudy 56 13.3 28 -2.2 34 34 ESE 24 39 30.06 1018 10 16 0.00 0.00
7:53 pm 19:53 Sunny 51 10.6 32 0 48 48 ESE 20 31 30.06 1018 10 16 0.00 0.00
8:53 pm 20:53 Partly Cloudy 48 8.9 32 0 54 54 E 7 11 30.05 1018 10 16 0.00 0.00
9:53 pm 21:53 Cloudy 48 8.9 33 0.6 56 56 E 5 7 30.03 1017 10 16 0.00 0.00
10:53 pm 22:53 Cloudy 48 8.9 33 0.6 56 56 Calm 30.04 1017 10 16 0.00 0.00
11:53 pm 23:53 Cloudy 47 8.3 36 2.2 66 66 NE 8 13 30.04 1017 10 16 0.01 0.25

Powered by AerisWeather